LEAS

Asturias

Airport
ICAO code
LEAS
Summary
ICAO Region
EUR
ICAO Territory
Location

Asturias, Spain,

Coordinates
43° 33' 34" N , 6° 1' 52" W
KCC
Airport BS
Bird Strike
Airport WX
Fog
Metar
Observation
LEAS 271930Z 11003KT 050V160 9999 FEW030 SCT045 BKN056 06/05 Q1026 NOSIG
Station
Asturias / Aviles
Date/Time
2023-01-27 19:30:00
Wind direction
110°
Wind speed
03 kts
Lowest cloud amount
few clouds
Temperature
6°C
Dew point
5°C
Humidity
93%
QNH
1026 hPa
Weather condition
n/a

Description

International airport serving Asturias in northern spain.

Climatology

Temperate Marine climate/Oceanic climate (Köppen climate classification Cfb). Moderately cool summer and comparatively warm winter with a temperature range of only 14°C. Prevailing south-westerly winds from the Atlantic Ocean.

Runways

Designator Length Width Surface Rops
11/29 2200 45 ASP Yes/Yes

Airport map

Aerial View

SKYbrary Partners:

Safety knowledge contributed by: